Overview Statistics Trail Chart Weather Telemetry Raw packets
 

This is the latest recevied weather packets stored in our database for station/object WW5JC. If no packets are shown the sender has not sent any weather packets the latest 10 day(s).

<< 1 2 3 4 5 >>
Time Temp. Humidity Pressure Rain* Wind** Luminosity Snow
1788633210 36.11° C 47% 1015.6 hPa 0 mm - 705 W/m² -
1788632910 36.11° C 47% 1015.6 hPa 0 mm - 696 W/m² -
1788632609 36.11° C 48% 1015.5 hPa 0 mm - 692 W/m² -
1788632305 35.56° C 48% 1015.6 hPa 0 mm - 690 W/m² -
1788631998 35.56° C 47% 1015.7 hPa 0 mm - 661 W/m² -
1788631697 36.11° C 48% 1015.8 hPa 0 mm - 702 W/m² -
1788631393 35.56° C 48% 1015.7 hPa 0 mm - 690 W/m² -
1788631088 35° C 50% 1015.7 hPa 0 mm - 688 W/m² -
1788630782 35° C 52% 1016.1 hPa 0 mm - 125 W/m² -
1788630477 35.56° C 49% 1016 hPa 0 mm - 688 W/m² -
1788630173 35.56° C 49% 1016 hPa 0 mm - 694 W/m² -
1788629869 35.56° C 49% 1016.1 hPa 0 mm - 687 W/m² -
1788629565 35.56° C 50% 1016.2 hPa 0 mm - 676 W/m² -
1788629264 35.56° C 51% 1016.3 hPa 0 mm - 677 W/m² -
1788628963 35° C 53% 1016.4 hPa 0 mm - 682 W/m² -
1788628660 33.89° C 54% 1016.4 hPa 0 mm - 684 W/m² -
1788628356 35° C 55% 1016.3 hPa 0 mm - 148 W/m² -
1788628052 35° C 54% 1016.5 hPa 0 mm - 654 W/m² -
1788627748 33.89° C 55% 1016.4 hPa 0 mm - 638 W/m² -
1788627447 33.89° C 55% 1016.7 hPa 0 mm - 657 W/m² -
1788627142 34.44° C 55% 1016.6 hPa 0 mm - 645 W/m² -
1788626836 34.44° C 55% 1016.6 hPa 0 mm - 633 W/m² -
1788626531 34.44° C 55% 1016.8 hPa 0 mm - 610 W/m² -
1788626227 35° C 54% 1016.9 hPa 0 mm - 593 W/m² -
1788625923 33.89° C 56% 1016.8 hPa 0 mm - 568 W/m² -

* Rain latest hour (hover to see other rain measurements)
** Current wind speed in m/s (hover to see current wind gust speed)